User: anonymous   Login
Location: Newark
(41.6500°N, 71.4833°W)
Time: 01:26:02
(UTC+00:00)
Language:

deb Explorer IX - Orbit

View from above orbital plane
View from above orbital plane
View from above satellite
View from above satellite

Ground track
Ground track

The orbit data is extracted from the following two-line orbital elements,

1    85U 61004C   20019.19357040  .00002967  00000-0  66687-3 0  9995
2    85  38.7712  67.2276 0384014 218.5873 138.6838 14.20245725909701
Epoch (UTC): 19 January 2020 04:38:44
Eccentricity: 0.0384014
inclination: 38.7712°
perigee height: 548 km
apogee height: 1101 km
right ascension of ascending node: 67.2276°
argument of perigee: 218.5873°
revolutions per day: 14.20245725
mean anomaly at epoch: 138.6838°
orbit number at epoch: 90970

The dashed part of the orbit path shows where the satellite is in the earth's shadow,  

DLR